EW8780 Weather Reports


Display with metric or nautical units.
time (UTC)temp
F
wind
direction
speed
MPH
gust
MPH
rain 1hr
in
rain 24hr
in
rain mn
in
humidity
%
barometer
mb
20260506211547 59 194 1.0 4.0 0.00 0.02 0.02 83 1019.3
20260506210045 58 134 1.0 6.0 0.00 0.02 0.02 83 1019.3
20260506204549 58 163 2.0 6.0 0.00 0.02 0.02 84 1019.3
20260506203044 58 135 3.0 7.0 0.00 0.02 0.02 84 1019.1
20260506201543 57 195 3.0 7.0 0.00 0.02 0.02 86 1019.1
20260506200044 57 211 3.0 7.0 0.00 0.02 0.02 86 1019.0
20260506194543 57 221 4.0 7.0 0.00 0.02 0.02 87 1019.0
20260506193041 57 195 2.0 7.0 0.00 0.02 0.02 87 1019.0
20260506191540 57 219 3.0 6.0 0.00 0.02 0.02 87 1019.0
20260506190039 57 208 2.0 5.0 0.00 0.02 0.02 86 1019.1
20260506184538 57 163 0.0 4.0 0.00 0.02 0.02 89 1019.1
20260506183036 56 219 1.0 5.0 0.00 0.02 0.02 90 1019.2
20260506181534 56 204 2.0 4.0 0.00 0.02 0.02 91 1019.1
20260506180036 56 211 0.0 5.0 0.00 0.02 0.02 92 1019.0
20260506174532 55 202 1.0 4.0 0.00 0.02 0.02 92 1018.9
20260506173031 55 194 1.0 4.0 0.00 0.02 0.02 93 1018.7
20260506171530 55 210 0.0 4.0 0.00 0.02 0.02 93 1018.8
20260506170029 55 211 0.0 2.0 0.00 0.02 0.02 94 1018.8
20260506164528 55 222 0.0 2.0 0.00 0.02 0.02 94 1018.7
20260506163031 54 224 2.0 6.0 0.00 0.02 0.02 94 1018.5
20260506161526 55 198 4.0 7.0 0.00 0.02 0.02 95 1018.4
20260506160023 55 208 0.0 2.0 0.00 0.02 0.02 96 1018.3
20260506154520 54 207 0.0 3.0 0.00 0.02 0.02 95 1018.4
20260506153016 54 205 1.0 3.0 0.00 0.02 0.02 96 1018.1
20260506151513 54 202 0.0 1.0 0.00 0.02 0.02 96 1018.1
20260506150008 54 202 0.0 2.0 0.00 0.02 0.02 96 1018.0
20260506144512 53 202 0.0 1.0 0.00 0.02 0.02 96 1018.1
20260506143006 53 202 0.0 1.0 0.00 0.02 0.02 96 1018.3
20260506141505 53 202 0.0 0.0 0.00 0.02 0.02 96 1018.2
20260506140004 52 202 0.0 0.0 0.00 0.02 0.02 96 1018.0
20260506134502 52 202 0.0 0.0 0.00 0.02 0.02 96 1017.8
20260506133001 52 202 0.0 0.0 0.00 0.02 0.02 95 1017.8
20260506131559 52 202 0.0 0.0 0.00 0.02 0.02 95 1017.7
20260506130058 52 202 0.0 0.0 0.00 0.02 0.02 95 1017.6
20260506124557 52 202 0.0 0.0 0.01 0.02 0.02 95 1017.6
20260506123056 52 202 0.0 0.0 0.01 0.02 0.02 95 1017.5
20260506121554 52 202 0.0 0.0 0.01 0.02 0.02 95 1017.2
20260506120053 52 202 0.0 0.0 0.02 0.02 0.02 95 1017.3
20260506114551 52 202 0.0 0.0 0.01 0.01 0.01 95 1017.2
20260506113050 52 202 0.0 0.0 0.01 0.01 0.01 95 1017.0
20260506111547 52 202 0.0 1.0 0.01 0.01 0.01 95 1016.8
20260506110047 52 202 0.0 2.0 0.00 0.00 0.00 95 1016.8
20260506104548 52 202 0.0 0.0 0.00 0.00 0.00 95 1016.7
20260506103043 52 202 0.0 2.0 0.00 0.00 0.00 95 1016.5
20260506101541 52 202 0.0 0.0 0.00 0.00 0.00 94 1016.3
20260506100038 52 202 0.0 0.0 0.00 0.00 0.00 94 1016.3
20260506094537 53 202 0.0 0.0 0.00 0.00 0.00 94 1016.2
20260506093040 52 202 0.0 0.0 0.00 0.00 0.00 94 1016.1
20260506091535 53 202 0.0 0.0 0.00 0.00 0.00 94 1016.0
20260506090033 53 202 0.0 0.0 0.00 0.00 0.00 94 1015.8
20260506084536 53 202 0.0 1.0 0.00 0.00 0.00 94 1015.8
20260506083030 53 202 0.0 0.0 0.00 0.00 0.00 94 1015.8
20260506081529 53 202 0.0 1.0 0.00 0.00 0.00 93 1015.7
20260506073024 53 202 0.0 0.0 0.00 0.00 0.00 93 1015.5
20260506071521 53 202 0.0 0.0 0.00 0.00 0.00 93 1015.3
20260506061523 53 202 0.0 0.0 0.00 0.00 0.00 93 1015.0
20260506044517 54 202 0.0 0.0 0.00 0.00 0.00 91 1014.8
20260506043011 54 202 0.0 0.0 0.00 0.00 0.00 91 1014.7
20260506041508 54 202 0.0 0.0 0.00 0.00 0.00 90 1014.5
20260506040009 54 202 0.0 0.0 0.00 0.00 0.00 90 1014.3
20260506034506 54 202 0.0 0.0 0.00 0.00 0.00 90 1014.1
20260506033005 54 202 0.0 1.0 0.00 0.00 0.00 89 1013.8
20260506031504 55 202 0.0 1.0 0.00 0.00 0.00 89 1013.7
20260506030002 55 202 0.0 2.0 0.00 0.00 0.00 88 1013.5
20260506024615 55 202 0.0 1.0 0.00 0.00 0.00 88 1013.3
20260506023105 55 202 0.0 2.0 0.00 0.00 0.00 87 1013.4
20260506021601 56 209 0.0 2.0 0.00 0.00 0.00 86 1013.3
20260506020057 57 209 0.0 1.0 0.00 0.00 0.00 86 1013.2
20260506014557 57 209 0.0 1.0 0.00 0.00 0.00 85 1013.2
20260506013102 57 209 0.0 2.0 0.00 0.00 0.00 85 1013.0
20260506011621 57 209 1.0 3.0 0.00 0.00 0.00 83 1012.9
20260506010106 58 216 0.0 4.0 0.00 0.00 0.00 84 1012.8
20260506004555 58 217 1.0 4.0 0.00 0.00 0.00 83 1012.9
20260506003057 58 190 0.0 2.0 0.00 0.00 0.00 84 1012.8
20260506001556 58 207 3.0 5.0 0.00 0.00 0.00 82 1012.8
20260506000058 58 152 0.0 4.0 0.00 0.00 0.00 82 1013.0
20260505234552 58 178 2.0 5.0 0.00 0.00 0.00 82 1012.9
20260505233052 59 180 1.0 5.0 0.00 0.00 0.00 82 1013.0
20260505231554 60 120 1.0 5.0 0.00 0.00 0.00 81 1013.2
20260505230052 61 150 1.0 6.0 0.00 0.00 0.00 80 1013.2
20260505224549 61 147 0.0 4.0 0.00 0.00 0.00 80 1013.0
20260505223048 62 201 2.0 7.0 0.00 0.00 0.00 78 1013.0
20260505221600 63 182 1.0 4.0 0.00 0.00 0.00 78 1013.1
20260505220057 63 222 2.0 5.0 0.00 0.00 0.00 76 1013.2
20260505214552 62 159 3.0 10.0 0.00 0.00 0.00 79 1013.1
20260505213047 63 180 5.0 10.0 0.00 0.00 0.00 77 1012.9